STARLINK-1060 (44765 NORAD) Tracking and Keplerian Element Data

This shows tracking and keplerian element data for the satellite.

Feedback or suggestion? Click here.




ElementValue
Catalog44765
NameSTARLINK-1060
Epoch Orbit1064
Epoch Day18.25002315
Epoch Year2020
RAAN195.8225
Inclination53.0074
Eccentricity0.000143
Argument of Perigee84.2895
Mean Anonmoly181.3057
Mean Motion15.42301143
Decay Rate-0.00102171
L11 44765U 19074BE 20018.25002315 -.00102171 00000-0 -23582-2 0 9992
L22 44765 53.0074 195.8225 0001430 84.2895 181.3057 15.42301143 10643

Live tracking and technical data element details for STARLINK-1060 (NORAD 44765). STARLINK-1060 can be tracked NOW for your location showing map with azimuth and elevation plus other details from your city location.

Track the satellite on the map from your city or location and see movement details for azimuth, elevation, latitude, longitude, range, height, and movement on the map or in text.







IsCatalogInMostPopularTable: catalog: 44765, numindb: 13
Update: records affected: 1



GetName: 44765 STARLINK-1060

Hit Count: updated at: Sat, 18 Jan 2020 18:14:48 GMT